# Tabular Observed and Forecast Hydrograph Information
#
# Location: San Timoteo Creek - Loma Linda (TIMC1)
#
# File Generation Time: 05/03/2026 at 09:08 AM PDT
# Data Interval: 1 Hour
#
# Most Recent Date & Time of Maximum Observed: 04/29/2026 at 04:00 PM PDT
# Maximum Observed Stage: 1.06 Feet
# Maximum Observed Flow: 6 cfs
#
# Earliest Date & Time of Maximum Forecast: 05/04/2026 at 01:00 AM PDT
# Maximum Forecast Stage: 1.05 Feet
# Maximum Forecast Flow: 5 cfs
#
# OBSERVED
#
# Date & Time (Local) Stage (Feet) Flow (cfs) Trend Observed Status
# ---------------------------------------------------------------------------------
04/28/2026 09 AM PDT 1.02 4 Not Applicable
04/28/2026 10 AM PDT 1.02 4 0 Not Applicable
04/28/2026 11 AM PDT 1.02 4 0 Not Applicable
04/28/2026 12 PM PDT 1.02 4 0 Not Applicable
04/28/2026 01 PM PDT 1.03 4 + Not Applicable
04/28/2026 02 PM PDT 1.03 4 0 Not Applicable
04/28/2026 03 PM PDT 1.03 4 0 Not Applicable
04/28/2026 04 PM PDT 1.02 4 - Not Applicable
04/28/2026 05 PM PDT 1.02 4 0 Not Applicable
04/28/2026 06 PM PDT 1.01 3 - Not Applicable
04/28/2026 07 PM PDT 1.01 3 0 Not Applicable
04/28/2026 08 PM PDT 0.96 2 - Not Applicable
04/28/2026 09 PM PDT 0.98 2 + Not Applicable
04/28/2026 10 PM PDT 0.98 2 0 Not Applicable
04/28/2026 11 PM PDT 0.99 3 + Not Applicable
04/29/2026 12 AM PDT 0.93 1 - Not Applicable
04/29/2026 01 AM PDT 0.98 2 + Not Applicable
04/29/2026 02 AM PDT 0.99 3 + Not Applicable
04/29/2026 03 AM PDT 0.99 3 0 Not Applicable
04/29/2026 04 AM PDT 0.99 3 0 Not Applicable
04/29/2026 05 AM PDT 1.00 3 + Not Applicable
04/29/2026 06 AM PDT 1.00 3 0 Not Applicable
04/29/2026 07 AM PDT 1.00 3 0 Not Applicable
04/29/2026 08 AM PDT 1.00 3 0 Not Applicable
04/29/2026 09 AM PDT 1.00 3 0 Not Applicable
04/29/2026 10 AM PDT 1.00 3 0 Not Applicable
04/29/2026 11 AM PDT 1.02 4 + Not Applicable
04/29/2026 12 PM PDT 1.02 4 0 Not Applicable
04/29/2026 01 PM PDT 1.03 4 + Not Applicable
04/29/2026 02 PM PDT 1.06 6 + Not Applicable
04/29/2026 03 PM PDT 1.06 6 0 Not Applicable
04/29/2026 04 PM PDT 1.06 6 0 Not Applicable
04/29/2026 05 PM PDT 1.05 5 - Not Applicable
04/29/2026 06 PM PDT 1.05 5 0 Not Applicable
04/29/2026 07 PM PDT 1.02 4 - Not Applicable
04/29/2026 08 PM PDT 1.01 3 - Not Applicable
04/29/2026 09 PM PDT 0.96 2 - Not Applicable
04/29/2026 10 PM PDT 0.97 2 + Not Applicable
04/29/2026 11 PM PDT 0.97 2 0 Not Applicable
04/30/2026 12 AM PDT 0.96 2 - Not Applicable
04/30/2026 01 AM PDT 0.93 1 - Not Applicable
04/30/2026 02 AM PDT 0.93 1 0 Not Applicable
04/30/2026 03 AM PDT 0.96 2 + Not Applicable
04/30/2026 04 AM PDT 0.96 2 0 Not Applicable
04/30/2026 05 AM PDT 0.99 3 + Not Applicable
04/30/2026 06 AM PDT 1.01 3 + Not Applicable
04/30/2026 07 AM PDT 1.01 3 0 Not Applicable
04/30/2026 08 AM PDT 1.02 4 + Not Applicable
04/30/2026 09 AM PDT 1.02 4 0 Not Applicable
04/30/2026 10 AM PDT 1.00 3 - Not Applicable
04/30/2026 11 AM PDT 1.00 3 0 Not Applicable
04/30/2026 12 PM PDT 1.01 3 + Not Applicable
04/30/2026 01 PM PDT 0.99 3 - Not Applicable
04/30/2026 02 PM PDT 1.02 4 + Not Applicable
04/30/2026 03 PM PDT 1.02 4 0 Not Applicable
04/30/2026 04 PM PDT 1.02 4 0 Not Applicable
04/30/2026 05 PM PDT 1.01 3 - Not Applicable
04/30/2026 06 PM PDT 1.05 5 + Not Applicable
04/30/2026 07 PM PDT 1.05 5 0 Not Applicable
04/30/2026 08 PM PDT 1.01 3 - Not Applicable
04/30/2026 09 PM PDT 0.97 2 - Not Applicable
04/30/2026 10 PM PDT 0.96 2 - Not Applicable
04/30/2026 11 PM PDT 0.98 2 + Not Applicable
05/01/2026 12 AM PDT 0.95 1 - Not Applicable
05/01/2026 01 AM PDT 0.93 1 - Not Applicable
05/01/2026 02 AM PDT 0.97 2 + Not Applicable
05/01/2026 03 AM PDT 0.97 2 0 Not Applicable
05/01/2026 04 AM PDT 0.98 2 + Not Applicable
05/01/2026 05 AM PDT 0.98 2 0 Not Applicable
05/01/2026 06 AM PDT 0.98 2 0 Not Applicable
05/01/2026 07 AM PDT 0.98 2 0 Not Applicable
05/01/2026 08 AM PDT 0.99 3 + Not Applicable
05/01/2026 09 AM PDT 0.99 3 0 Not Applicable
05/01/2026 10 AM PDT 1.00 3 + Not Applicable
05/01/2026 11 AM PDT 1.00 3 0 Not Applicable
05/01/2026 12 PM PDT 1.00 3 0 Not Applicable
05/01/2026 01 PM PDT 1.01 3 + Not Applicable
05/01/2026 02 PM PDT 1.01 3 0 Not Applicable
05/01/2026 03 PM PDT 1.02 4 + Not Applicable
05/01/2026 04 PM PDT 1.02 4 0 Not Applicable
05/01/2026 05 PM PDT 1.02 4 0 Not Applicable
05/01/2026 06 PM PDT 1.02 4 0 Not Applicable
05/01/2026 07 PM PDT 1.02 4 0 Not Applicable
05/01/2026 08 PM PDT 1.01 3 - Not Applicable
05/01/2026 09 PM PDT 0.95 1 - Not Applicable
05/01/2026 10 PM PDT 0.97 2 + Not Applicable
05/01/2026 11 PM PDT 0.97 2 0 Not Applicable
05/02/2026 12 AM PDT 0.97 2 0 Not Applicable
05/02/2026 01 AM PDT 0.96 2 - Not Applicable
05/02/2026 02 AM PDT 0.92 1 - Not Applicable
05/02/2026 03 AM PDT 0.97 2 + Not Applicable
05/02/2026 04 AM PDT 0.98 2 + Not Applicable
05/02/2026 05 AM PDT 0.98 2 0 Not Applicable
05/02/2026 06 AM PDT 0.99 3 + Not Applicable
05/02/2026 07 AM PDT 1.00 3 + Not Applicable
05/02/2026 08 AM PDT 1.02 4 + Not Applicable
05/02/2026 09 AM PDT 1.02 4 0 Not Applicable
05/02/2026 10 AM PDT 1.03 4 + Not Applicable
05/02/2026 11 AM PDT 1.02 4 - Not Applicable
05/02/2026 12 PM PDT 1.02 4 0 Not Applicable
05/02/2026 01 PM PDT 1.01 3 - Not Applicable
05/02/2026 02 PM PDT 1.01 3 0 Not Applicable
05/02/2026 03 PM PDT 1.01 3 0 Not Applicable
05/02/2026 04 PM PDT 0.95 1 - Not Applicable
05/02/2026 05 PM PDT 0.92 1 - Not Applicable
05/02/2026 06 PM PDT 0.90 1 - Not Applicable
05/02/2026 07 PM PDT 0.89 0 - Not Applicable
05/02/2026 08 PM PDT 0.88 0 - Not Applicable
05/02/2026 09 PM PDT 0.88 0 0 Not Applicable
05/02/2026 10 PM PDT 0.87 0 - Not Applicable
05/02/2026 11 PM PDT 0.87 0 0 Not Applicable
05/03/2026 12 AM PDT 0.88 0 + Not Applicable
05/03/2026 01 AM PDT 0.89 0 + Not Applicable
05/03/2026 02 AM PDT 0.95 1 + Not Applicable
05/03/2026 03 AM PDT 0.99 3 + Not Applicable
05/03/2026 04 AM PDT 1.00 3 + Not Applicable
05/03/2026 05 AM PDT 1.00 3 0 Not Applicable
05/03/2026 06 AM PDT 0.99 3 - Not Applicable
05/03/2026 07 AM PDT 0.99 3 0 Not Applicable
05/03/2026 08 AM PDT 0.99 3 0 Not Applicable
05/03/2026 09 AM PDT 0.99 3 0 Not Applicable
#
# FORECAST
#
# Date & Time (Local) Stage (Feet) Flow (cfs) Trend Forecast Status
# ---------------------------------------------------------------------------------
05/03/2026 10 AM PDT 0.99 3 Not Applicable
05/03/2026 11 AM PDT 0.99 3 0 Not Applicable
05/03/2026 12 PM PDT 0.99 3 0 Not Applicable
05/03/2026 01 PM PDT 0.99 3 0 Not Applicable
05/03/2026 02 PM PDT 0.99 3 0 Not Applicable
05/03/2026 03 PM PDT 0.99 3 0 Not Applicable
05/03/2026 04 PM PDT 0.99 3 0 Not Applicable
05/03/2026 05 PM PDT 0.99 3 0 Not Applicable
05/03/2026 06 PM PDT 0.99 3 0 Not Applicable
05/03/2026 07 PM PDT 0.99 3 0 Not Applicable
05/03/2026 08 PM PDT 0.99 3 0 Not Applicable
05/03/2026 09 PM PDT 1.01 3 + Not Applicable
05/03/2026 10 PM PDT 1.02 4 + Not Applicable
05/03/2026 11 PM PDT 1.04 5 + Not Applicable
05/04/2026 12 AM PDT 1.04 5 0 Not Applicable
05/04/2026 01 AM PDT 1.05 5 + Not Applicable
05/04/2026 02 AM PDT 1.05 5 0 Not Applicable
05/04/2026 03 AM PDT 1.04 5 - Not Applicable
05/04/2026 04 AM PDT 1.03 4 - Not Applicable
05/04/2026 05 AM PDT 1.02 4 - Not Applicable
05/04/2026 06 AM PDT 1.02 4 0 Not Applicable
05/04/2026 07 AM PDT 1.01 3 - Not Applicable
05/04/2026 08 AM PDT 1.01 3 0 Not Applicable
05/04/2026 09 AM PDT 1.00 3 - Not Applicable
05/04/2026 10 AM PDT 1.00 3 0 Not Applicable
05/04/2026 11 AM PDT 0.99 3 - Not Applicable
05/04/2026 12 PM PDT 0.99 3 0 Not Applicable
05/04/2026 01 PM PDT 0.99 3 0 Not Applicable
05/04/2026 02 PM PDT 0.99 3 0 Not Applicable
05/04/2026 03 PM PDT 0.99 3 0 Not Applicable
05/04/2026 04 PM PDT 0.99 3 0 Not Applicable
05/04/2026 05 PM PDT 0.99 3 0 Not Applicable
05/04/2026 06 PM PDT 0.99 3 0 Not Applicable
05/04/2026 07 PM PDT 0.99 3 0 Not Applicable
05/04/2026 08 PM PDT 0.99 3 0 Not Applicable
05/04/2026 09 PM PDT 0.98 2 - Not Applicable
05/04/2026 10 PM PDT 0.98 2 0 Not Applicable
05/04/2026 11 PM PDT 0.98 2 0 Not Applicable
05/05/2026 12 AM PDT 0.98 2 0 Not Applicable
05/05/2026 01 AM PDT 0.98 2 0 Not Applicable
05/05/2026 02 AM PDT 0.98 2 0 Not Applicable
05/05/2026 03 AM PDT 0.98 2 0 Not Applicable
05/05/2026 04 AM PDT 0.98 2 0 Not Applicable
05/05/2026 05 AM PDT 0.98 2 0 Not Applicable
05/05/2026 06 AM PDT 0.98 2 0 Not Applicable
05/05/2026 07 AM PDT 0.98 2 0 Not Applicable
05/05/2026 08 AM PDT 0.99 3 + Not Applicable
05/05/2026 09 AM PDT 1.01 3 + Not Applicable
05/05/2026 10 AM PDT 1.02 4 + Not Applicable
05/05/2026 11 AM PDT 1.04 5 + Not Applicable
05/05/2026 12 PM PDT 1.04 5 0 Not Applicable
05/05/2026 01 PM PDT 1.05 5 + Not Applicable
05/05/2026 02 PM PDT 1.05 5 0 Not Applicable
05/05/2026 03 PM PDT 1.04 5 - Not Applicable
05/05/2026 04 PM PDT 1.03 4 - Not Applicable
05/05/2026 05 PM PDT 1.02 4 - Not Applicable
05/05/2026 06 PM PDT 1.02 4 0 Not Applicable
05/05/2026 07 PM PDT 1.01 3 - Not Applicable
05/05/2026 08 PM PDT 1.00 3 - Not Applicable
05/05/2026 09 PM PDT 1.00 3 0 Not Applicable
05/05/2026 10 PM PDT 1.00 3 0 Not Applicable
05/05/2026 11 PM PDT 0.99 3 - Not Applicable
05/06/2026 12 AM PDT 0.99 3 0 Not Applicable
05/06/2026 01 AM PDT 0.99 3 0 Not Applicable
05/06/2026 02 AM PDT 0.99 3 0 Not Applicable
05/06/2026 03 AM PDT 0.99 3 0 Not Applicable
05/06/2026 04 AM PDT 0.99 3 0 Not Applicable
05/06/2026 05 AM PDT 0.99 3 0 Not Applicable
05/06/2026 06 AM PDT 0.98 2 - Not Applicable
05/06/2026 07 AM PDT 0.98 2 0 Not Applicable
05/06/2026 08 AM PDT 0.98 2 0 Not Applicable
05/06/2026 09 AM PDT 0.98 2 0 Not Applicable
05/06/2026 10 AM PDT 0.98 2 0 Not Applicable
05/06/2026 11 AM PDT 0.98 2 0 Not Applicable
05/06/2026 12 PM PDT 0.98 2 0 Not Applicable
05/06/2026 01 PM PDT 0.98 2 0 Not Applicable
05/06/2026 02 PM PDT 0.98 2 0 Not Applicable
05/06/2026 03 PM PDT 0.98 2 0 Not Applicable
05/06/2026 04 PM PDT 0.98 2 0 Not Applicable
05/06/2026 05 PM PDT 0.98 2 0 Not Applicable
05/06/2026 06 PM PDT 0.98 2 0 Not Applicable
05/06/2026 07 PM PDT 0.98 2 0 Not Applicable
05/06/2026 08 PM PDT 0.98 2 0 Not Applicable
05/06/2026 09 PM PDT 0.98 2 0 Not Applicable
05/06/2026 10 PM PDT 0.98 2 0 Not Applicable
05/06/2026 11 PM PDT 0.98 2 0 Not Applicable
05/07/2026 12 AM PDT 0.98 2 0 Not Applicable
05/07/2026 01 AM PDT 0.98 2 0 Not Applicable
05/07/2026 02 AM PDT 0.98 2 0 Not Applicable
05/07/2026 03 AM PDT 0.98 2 0 Not Applicable
05/07/2026 04 AM PDT 0.98 2 0 Not Applicable
05/07/2026 05 AM PDT 0.98 2 0 Not Applicable
05/07/2026 06 AM PDT 0.98 2 0 Not Applicable
05/07/2026 07 AM PDT 0.98 2 0 Not Applicable
05/07/2026 08 AM PDT 0.98 2 0 Not Applicable
05/07/2026 09 AM PDT 0.98 2 0 Not Applicable
05/07/2026 10 AM PDT 0.98 2 0 Not Applicable
05/07/2026 11 AM PDT 0.98 2 0 Not Applicable
05/07/2026 12 PM PDT 0.98 2 0 Not Applicable
05/07/2026 01 PM PDT 0.98 2 0 Not Applicable
05/07/2026 02 PM PDT 0.98 2 0 Not Applicable
05/07/2026 03 PM PDT 0.98 2 0 Not Applicable
05/07/2026 04 PM PDT 0.98 2 0 Not Applicable
05/07/2026 05 PM PDT 0.98 2 0 Not Applicable
05/07/2026 06 PM PDT 0.98 2 0 Not Applicable
05/07/2026 07 PM PDT 0.98 2 0 Not Applicable
05/07/2026 08 PM PDT 0.98 2 0 Not Applicable
05/07/2026 09 PM PDT 0.98 2 0 Not Applicable
05/07/2026 10 PM PDT 0.98 2 0 Not Applicable
05/07/2026 11 PM PDT 0.98 2 0 Not Applicable
05/08/2026 12 AM PDT 0.98 2 0 Not Applicable
05/08/2026 01 AM PDT 0.98 2 0 Not Applicable
05/08/2026 02 AM PDT 0.98 2 0 Not Applicable
05/08/2026 03 AM PDT 0.98 2 0 Not Applicable
05/08/2026 04 AM PDT 0.98 2 0 Not Applicable
05/08/2026 05 AM PDT 0.98 2 0 Not Applicable
#
# NOTE 1: Stages are rounded to the nearest hundredth (.01) of a foot.
# NOTE 2: Flows are rounded to the nearest (1) cfs.
# NOTE 3: Trends are determined using hourly change in unrounded stage and flow.
# NOTE 4: Maximum Values are determined using unrounded stage and flow.
|